CW0069 Weather Reports


Display with metric or nautical units.
time (UTC)temp
F
wind
direction
speed
MPH
gust
MPH
rain 1hr
in
rain 24hr
in
rain mn
in
humidity
%
barometer
mb
20260901204904 98 54 5.0 8.0 0.00 0.00 0.00 33 1011.2
20260901204404 98 69 2.0 7.0 0.00 0.00 0.00 32 1011.2
20260901203904 99 47 3.0 7.0 0.00 0.00 0.00 31 1011.2
20260901202904 100 55 4.0 8.0 0.00 0.00 0.00 31 1011.3
20260901202403 100 34 2.0 3.0 0.00 0.00 0.00 32 1011.3
20260901201904 100 292 3.0 7.0 0.00 0.00 0.00 30 1011.4
20260901201404 101 314 4.0 10.0 0.00 0.00 0.00 30 1011.4
20260901200906 101 236 5.0 12.0 0.00 0.00 0.00 32 1011.5
20260901195904 100 215 1.0 3.0 0.00 0.00 0.00 32 1011.6
20260901195403 100 117 1.0 5.0 0.00 0.00 0.00 32 1011.6
20260901194404 100 283 2.0 3.0 0.00 0.00 0.00 32 1011.8
20260901193904 100 280 2.0 3.0 0.00 0.00 0.00 33 1011.9
20260901193404 100 306 3.0 9.0 0.00 0.00 0.00 31 1012.0
20260901192903 101 309 3.0 9.0 0.00 0.00 0.00 32 1012.0
20260901192404 101 19 2.0 7.0 0.00 0.00 0.00 34 1012.1
20260901191404 101 224 2.0 9.0 0.00 0.00 0.00 33 1012.1
20260901190904 101 248 6.0 12.0 0.00 0.00 0.00 32 1012.2
20260901185403 100 240 1.0 3.0 0.00 0.00 0.00 34 1012.6
20260901184904 100 67 3.0 9.0 0.00 0.00 0.00 31 1012.6
20260901184404 101 351 3.0 8.0 0.00 0.00 0.00 33 1012.6
20260901183903 101 120 4.0 8.0 0.00 0.00 0.00 32 1012.8
20260901183404 100 116 2.0 8.0 0.00 0.00 0.00 33 1013.0
20260901182404 100 136 0.0 3.0 0.00 0.00 0.00 33 1013.0
20260901181904 100 109 2.0 5.0 0.00 0.00 0.00 34 1013.2
20260901181404 99 22 2.0 7.0 0.00 0.00 0.00 35 1013.4
20260901180903 98 136 1.0 5.0 0.00 0.00 0.00 35 1013.5
20260901180404 98 136 6.0 8.0 0.00 0.00 0.00 37 1013.5
20260901175903 98 155 3.0 5.0 0.00 0.00 0.00 37 1013.7
20260901175404 97 171 3.0 6.0 0.00 0.00 0.00 38 1013.8
20260901174904 96 221 2.0 6.0 0.00 0.00 0.00 39 1013.8
20260901173404 95 172 3.0 5.0 0.00 0.00 0.00 39 1014.1
20260901172903 96 217 3.0 6.0 0.00 0.00 0.00 38 1014.1
20260901172403 96 256 3.0 8.0 0.00 0.00 0.00 37 1014.3
20260901171904 96 263 5.0 9.0 0.00 0.00 0.00 38 1014.2
20260901171403 97 269 4.0 8.0 0.00 0.00 0.00 37 1014.3
20260901170904 98 212 3.0 6.0 0.00 0.00 0.00 37 1014.4
20260901170404 98 235 5.0 7.0 0.00 0.00 0.00 36 1014.4
20260901165904 98 232 3.0 5.0 0.00 0.00 0.00 35 1014.4
20260901165403 98 208 2.0 3.0 0.00 0.00 0.00 38 1014.4
20260901163904 96 127 2.0 7.0 0.00 0.00 0.00 39 1014.6
20260901163404 96 153 3.0 7.0 0.00 0.00 0.00 40 1014.5
20260901162904 96 161 3.0 7.0 0.00 0.00 0.00 41 1014.6
20260901162404 95 205 3.0 7.0 0.00 0.00 0.00 41 1014.7
20260901161904 95 146 3.0 5.0 0.00 0.00 0.00 40 1014.7
20260901160404 94 199 2.0 5.0 0.00 0.00 0.00 42 1014.7
20260901155903 94 175 2.0 6.0 0.00 0.00 0.00 42 1014.7
20260901155404 94 132 1.0 7.0 0.00 0.00 0.00 42 1014.7
20260901154904 94 152 4.0 7.0 0.00 0.00 0.00 42 1014.7
20260901154404 93 204 1.0 5.0 0.00 0.00 0.00 43 1014.7
20260901153903 93 210 3.0 6.0 0.00 0.00 0.00 45 1014.8
20260901153404 93 197 5.0 7.0 0.00 0.00 0.00 45 1014.8
20260901152904 92 204 3.0 7.0 0.00 0.00 0.00 44 1014.8
20260901152403 92 203 4.0 7.0 0.00 0.00 0.00 45 1014.7
20260901151904 92 203 4.0 6.0 0.00 0.00 0.00 46 1014.6
20260901151404 92 215 3.0 5.0 0.00 0.00 0.00 47 1014.7
20260901150904 91 185 3.0 5.0 0.00 0.00 0.00 48 1014.7
20260901150404 91 214 2.0 7.0 0.00 0.00 0.00 47 1014.7
20260901145904 90 205 4.0 8.0 0.00 0.00 0.00 48 1014.7
20260901145403 90 135 2.0 7.0 0.00 0.00 0.00 48 1014.7
20260901144904 90 202 2.0 6.0 0.00 0.00 0.00 48 1014.8
20260901144403 90 161 4.0 7.0 0.00 0.00 0.00 50 1014.9
20260901143904 89 180 2.0 5.0 0.00 0.00 0.00 50 1014.9
20260901143403 89 142 2.0 5.0 0.00 0.00 0.00 50 1015.0
20260901142904 89 143 2.0 3.0 0.00 0.00 0.00 51 1014.9
20260901142403 88 155 3.0 6.0 0.00 0.00 0.00 52 1014.9
20260901141904 88 132 3.0 7.0 0.00 0.00 0.00 53 1014.9
20260901141404 87 118 2.0 3.0 0.00 0.00 0.00 53 1014.9
20260901140904 87 118 2.0 3.0 0.00 0.00 0.00 55 1014.9
20260901140404 86 119 2.0 3.0 0.00 0.00 0.00 55 1014.9
20260901135906 86 118 2.0 3.0 0.00 0.00 0.00 56 1014.8
20260901135403 85 119 2.0 3.0 0.00 0.00 0.00 56 1014.9
20260901134904 84 119 2.0 3.0 0.00 0.00 0.00 57 1014.9
20260901134404 84 116 2.0 3.0 0.00 0.00 0.00 58 1015.0
20260901133903 83 116 1.0 3.0 0.00 0.00 0.00 58 1015.0
20260901133404 83 116 1.0 3.0 0.00 0.00 0.00 59 1015.0
20260901132904 82 116 2.0 3.0 0.00 0.00 0.00 59 1015.0
20260901132404 82 117 1.0 3.0 0.00 0.00 0.00 60 1015.0
20260901131903 81 116 1.0 2.0 0.00 0.00 0.00 60 1015.0
20260901131404 97 117 0.0 0.0 0.00 0.00 0.00 26 1014.8
20260901130404 97 117 0.0 1.0 0.00 0.00 0.00 26 1014.8
20260901125404 97 117 0.0 2.0 0.00 0.00 0.00 26 1014.6
20260901124904 97 117 0.0 0.0 0.00 0.00 0.00 26 1014.5
20260901123904 97 117 0.0 0.0 0.00 0.00 0.00 26 1014.4
20260901123403 97 117 0.0 0.0 0.00 0.00 0.00 26 1014.4
20260901122903 97 116 0.0 0.0 0.00 0.00 0.00 26 1014.4
20260901122404 97 116 0.0 2.0 0.00 0.00 0.00 26 1014.4
20260901121904 97 116 1.0 3.0 0.00 0.00 0.00 26 1014.4
20260901120904 97 117 0.0 1.0 0.00 0.00 0.00 26 1014.0
20260901120404 97 117 0.0 1.0 0.00 0.00 0.00 26 1014.1
20260901115903 97 117 0.0 1.0 0.00 0.00 0.00 26 1014.1
20260901114903 97 117 1.0 2.0 0.00 0.00 0.00 26 1013.9
20260901114403 97 117 0.0 0.0 0.00 0.00 0.00 26 1013.8
20260901113904 97 117 0.0 0.0 0.00 0.00 0.00 26 1013.7
20260901112904 97 117 0.0 2.0 0.00 0.00 0.00 26 1013.6
20260901112404 97 117 0.0 2.0 0.00 0.00 0.00 26 1013.7
20260901111904 97 117 1.0 3.0 0.00 0.00 0.00 26 1013.6
20260901111404 97 117 1.0 3.0 0.00 0.00 0.00 26 1013.7
20260901110904 97 117 0.0 3.0 0.00 0.00 0.00 26 1013.7
20260901110404 97 117 1.0 3.0 0.00 0.00 0.00 26 1013.6
20260901105904 97 117 1.0 3.0 0.00 0.00 0.00 26 1013.6
20260901105404 97 117 1.0 2.0 0.00 0.00 0.00 26 1013.5
20260901104904 97 117 1.0 3.0 0.00 0.00 0.00 26 1013.5
20260901103904 97 117 0.0 2.0 0.00 0.00 0.00 26 1013.5
20260901103403 97 117 1.0 2.0 0.00 0.00 0.00 26 1013.5
20260901102904 97 115 1.0 3.0 0.00 0.00 0.00 26 1013.5
20260901102404 97 112 1.0 2.0 0.00 0.00 0.00 26 1013.5
20260901101904 97 112 1.0 3.0 0.00 0.00 0.00 26 1013.5
20260901101404 97 112 0.0 3.0 0.00 0.00 0.00 26 1013.5
20260901100903 97 112 0.0 2.0 0.00 0.00 0.00 26 1013.5
20260901095904 97 117 1.0 3.0 0.00 0.00 0.00 26 1013.5
20260901095403 97 117 2.0 3.0 0.00 0.00 0.00 26 1013.5
20260901094903 97 116 2.0 6.0 0.00 0.00 0.00 26 1013.6
20260901094404 97 106 2.0 6.0 0.00 0.00 0.00 26 1013.6
20260901093903 97 111 3.0 7.0 0.00 0.00 0.00 26 1013.7
20260901093404 97 119 2.0 7.0 0.00 0.00 0.00 26 1013.7
20260901091904 97 104 1.0 3.0 0.00 0.00 0.00 26 1013.7
20260901091404 97 104 1.0 3.0 0.00 0.00 0.00 26 1013.7
20260901090904 97 104 2.0 6.0 0.00 0.00 0.00 26 1013.7
20260901090404 97 98 2.0 6.0 0.00 0.00 0.00 26 1013.6
20260901085903 97 96 2.0 3.0 0.00 0.00 0.00 26 1013.5
20260901085404 97 100 2.0 6.0 0.00 0.00 0.00 26 1013.6
20260901084903 97 103 1.0 6.0 0.00 0.00 0.00 26 1013.5
20260901084404 97 98 2.0 3.0 0.00 0.00 0.00 26 1013.5
20260901083904 97 97 2.0 3.0 0.00 0.00 0.00 26 1013.4
20260901083404 97 94 2.0 6.0 0.00 0.00 0.00 26 1013.3
20260901081904 97 101 2.0 6.0 0.00 0.00 0.00 26 1013.4
20260901081404 97 101 1.0 3.0 0.00 0.00 0.00 26 1013.4
20260901080903 97 100 3.0 3.0 0.00 0.00 0.00 26 1013.4
20260901080404 97 100 2.0 6.0 0.00 0.00 0.00 26 1013.3
20260901074904 97 109 2.0 3.0 0.00 0.00 0.00 26 1013.3
20260901074403 97 111 1.0 3.0 0.00 0.00 0.00 26 1013.3
20260901073904 97 111 2.0 3.0 0.00 0.00 0.00 26 1013.3
20260901072903 97 103 3.0 6.0 0.00 0.00 0.00 26 1013.2
20260901072404 97 114 2.0 6.0 0.00 0.00 0.00 26 1013.2
20260901071903 97 109 1.0 6.0 0.00 0.00 0.00 26 1013.2
20260901071404 97 111 2.0 6.0 0.00 0.00 0.00 26 1013.1
20260901070903 97 105 2.0 6.0 0.00 0.00 0.00 26 1013.1
20260901065903 97 92 1.0 6.0 0.00 0.00 0.00 26 1013.2
20260901064904 97 85 2.0 3.0 0.00 0.00 0.00 26 1013.0
20260901064403 97 81 1.0 3.0 0.00 0.00 0.00 26 1013.1
20260901063903 97 82 1.0 3.0 0.00 0.00 0.00 26 1013.1
20260901063404 97 82 0.0 3.0 0.00 0.00 0.00 26 1013.1
20260901062904 97 82 1.0 3.0 0.00 0.00 0.00 26 1013.0
20260901062404 97 82 1.0 5.0 0.00 0.00 0.00 26 1012.9
20260901061904 97 84 1.0 5.0 0.00 0.00 0.00 26 1012.9
20260901061403 97 85 2.0 5.0 0.00 0.00 0.00 26 1012.9
20260901060904 97 79 2.0 5.0 0.00 0.00 0.00 26 1012.8
20260901060404 97 83 2.0 5.0 0.00 0.00 0.00 26 1012.8
20260901055903 97 62 2.0 6.0 0.00 0.00 0.00 26 1012.7
20260901055405 97 80 3.0 8.0 0.00 0.00 0.00 26 1012.7
20260901054905 97 62 3.0 5.0 0.00 0.00 0.00 26 1012.6
20260901053905 97 78 2.0 3.0 0.00 0.00 0.00 26 1012.6
20260901053404 97 74 2.0 6.0 0.00 0.00 0.00 26 1012.6
20260901052905 97 80 2.0 3.0 0.00 0.00 0.00 26 1012.4
20260901052404 97 80 2.0 7.0 0.00 0.00 0.00 26 1012.4
20260901051905 97 80 2.0 7.0 0.00 0.00 0.00 26 1012.4
20260901051405 97 81 3.0 7.0 0.00 0.00 0.00 26 1012.5
20260901050905 97 80 3.0 6.0 0.00 0.00 0.00 26 1012.4
20260901045905 97 72 2.0 5.0 0.00 0.00 0.00 26 1012.3
20260901045405 97 76 3.0 7.0 0.00 0.00 0.00 26 1012.3
20260901044904 97 75 3.0 6.0 0.00 0.00 0.00 26 1012.3
20260901044404 97 72 2.0 5.0 0.00 0.00 0.00 26 1012.2
20260901043905 97 73 2.0 6.0 0.00 0.00 0.00 26 1012.1
20260901043404 97 79 2.0 6.0 0.00 0.00 0.00 26 1012.2
20260901042905 97 73 3.0 5.0 0.00 0.00 0.00 26 1012.2
20260901042405 97 57 2.0 5.0 0.00 0.00 0.00 26 1012.1
20260901041905 97 71 2.0 5.0 0.00 0.00 0.00 26 1012.1
20260901041405 97 74 2.0 3.0 0.00 0.00 0.00 26 1012.2
20260901040404 97 74 1.0 3.0 0.00 0.00 0.00 26 1012.1
20260901035905 97 74 1.0 3.0 0.00 0.00 0.00 26 1012.1
20260901035404 97 42 2.0 7.0 0.00 0.00 0.00 26 1012.2
20260901034405 97 111 1.0 2.0 0.00 0.00 0.00 26 1012.0
20260901033905 97 112 0.0 2.0 0.00 0.00 0.00 26 1012.0
20260901033405 97 111 1.0 3.0 0.00 0.00 0.00 26 1012.0
20260901032905 97 112 1.0 2.0 0.00 0.00 0.00 26 1012.0
20260901032405 97 112 1.0 2.0 0.00 0.00 0.00 26 1012.0
20260901031905 97 112 1.0 3.0 0.00 0.00 0.00 26 1012.0
20260901031405 97 112 2.0 3.0 0.00 0.00 0.00 26 1012.0
20260901030404 97 113 0.0 1.0 0.00 0.00 0.00 26 1011.9
20260901025905 97 113 0.0 0.0 0.00 0.00 0.00 26 1011.8
20260901025405 97 113 0.0 0.0 0.00 0.00 0.00 26 1011.7
20260901024905 97 113 0.0 0.0 0.00 0.00 0.00 26 1011.6
20260901023905 97 113 1.0 2.0 0.00 0.00 0.00 26 1011.5
20260901022905 97 113 0.0 1.0 0.00 0.00 0.00 26 1011.4
20260901022405 97 113 0.0 2.0 0.00 0.00 0.00 26 1011.3
20260901021404 97 113 1.0 2.0 0.00 0.00 0.00 26 1011.2
20260901020405 97 113 1.0 3.0 0.00 0.00 0.00 26 1011.2
20260901015404 97 113 2.0 3.0 0.00 0.00 0.00 26 1011.1
20260901014405 97 114 2.0 3.0 0.00 0.00 0.00 26 1011.0
20260901013905 97 114 1.0 3.0 0.00 0.00 0.00 26 1011.1
20260901012904 97 114 1.0 3.0 0.00 0.00 0.00 26 1011.0
20260901012405 97 114 2.0 3.0 0.00 0.00 0.00 26 1010.9
20260901011905 97 114 2.0 3.0 0.00 0.00 0.00 26 1011.0
20260901010905 97 107 2.0 3.0 0.00 0.00 0.00 26 1010.8
20260901010405 97 103 2.0 6.0 0.00 0.00 0.00 26 1010.7
20260901005905 97 104 2.0 3.0 0.00 0.00 0.00 26 1010.7
20260901005404 97 103 2.0 3.0 0.00 0.00 0.00 26 1010.8
20260901004905 97 103 1.0 3.0 0.00 0.00 0.00 26 1010.7
20260901004404 97 104 2.0 3.0 0.00 0.00 0.00 26 1010.7
20260901003905 97 107 2.0 3.0 0.00 0.00 0.00 26 1010.7
20260901003404 97 99 2.0 3.0 0.00 0.00 0.00 26 1010.7
20260901002905 97 93 3.0 8.0 0.00 0.00 0.00 26 1010.7
20260901002405 97 104 3.0 8.0 0.00 0.00 0.00 26 1010.6
20260901001904 97 101 3.0 6.0 0.00 0.00 0.00 26 1010.6
20260901000904 97 100 3.0 8.0 0.00 0.00 0.00 26 1010.7
20260901000405 98 95 3.0 7.0 0.00 0.00 0.00 26 1010.7
20260831235905 98 83 2.0 7.0 0.00 0.00 0.00 25 1010.7
20260831235404 98 101 2.0 3.0 0.00 0.00 0.00 25 1010.7
20260831234904 99 86 2.0 8.0 0.00 0.00 0.00 24 1010.7
20260831234405 99 90 5.0 10.0 0.00 0.00 0.00 24 1010.7
20260831233405 100 104 5.0 10.0 0.00 0.00 0.00 23 1010.7
20260831232905 100 95 5.0 12.0 0.00 0.00 0.00 23 1010.6
20260831232404 100 110 7.0 13.0 0.00 0.00 0.00 23 1010.6
20260831230404 100 207 2.0 9.0 0.00 0.00 0.00 22 1010.5
20260831225404 101 152 4.0 8.0 0.00 0.00 0.00 23 1010.6
20260831224904 101 120 7.0 17.0 0.00 0.00 0.00 22 1010.7
20260831224405 101 149 5.0 9.0 0.00 0.00 0.00 23 1010.8
20260831223404 101 124 7.0 12.0 0.00 0.00 0.00 22 1010.8
20260831222904 101 133 6.0 12.0 0.00 0.00 0.00 23 1010.8
20260831222404 101 81 3.0 7.0 0.00 0.00 0.00 23 1010.9
20260831221904 101 97 4.0 10.0 0.00 0.00 0.00 23 1011.0
20260831221405 101 104 4.0 8.0 0.00 0.00 0.00 22 1010.9
20260831220904 102 95 4.0 13.0 0.00 0.00 0.00 21 1010.9
20260831215904 103 125 7.0 12.0 0.00 0.00 0.00 20 1011.0
20260831215405 104 96 4.0 10.0 0.00 0.00 0.00 22 1011.0
20260831214904 104 84 4.0 7.0 0.00 0.00 0.00 22 1011.1
20260831214405 104 83 2.0 7.0 0.00 0.00 0.00 21 1011.2
20260831213905 104 122 5.0 9.0 0.00 0.00 0.00 19 1011.3
20260831213404 104 129 3.0 9.0 0.00 0.00 0.00 21 1011.2
20260831212404 104 34 2.0 5.0 0.00 0.00 0.00 20 1011.2
20260831211904 104 148 4.0 12.0 0.00 0.00 0.00 21 1011.4
20260831211404 103 138 7.0 13.0 0.00 0.00 0.00 20 1011.4
20260831210905 103 85 2.0 8.0 0.00 0.00 0.00 20 1011.4
20260831210405 103 57 3.0 8.0 0.00 0.00 0.00 20 1011.5
20260831205405 103 166 7.0 13.0 0.00 0.00 0.00 20 1011.7